Погода Туапсе

Хотите узнать прогноз погоды Туапсе? Тогда Вам сюда: Погода Туапсе

Поиск расширенной информации на нашем сайте:

Полезная информация:

Новости сайта



02.01.2020
Опубликован Долгосрочный прогноз погоды по городам России и ближнего зарубежья на январь 2020 года.
Карты: Прогноз на январь и февраль 2020 года, Сравнение прогнозируемой аномалии приземной температуры воздуха на январь 2020 года по разным моделям.




Погода Туапсе - сегодня

Время (UTC), дата Ветер
(°,м/с) 
Видим.   Явления Облачность Т
(°С)
Тd
(°С)
f(%) Тe
(°С)
Pmin
(гПа)
dP
(гПа)
Po
(мм)
O2
(г/м3)
Тmin Tmax R s Состояние
почвы
06 30.11.20 060 (СВ) 20000 м    ясно 
+6.7 -3.7 47 +6  1020.1  -0.1  759  299  +4.5         
09 30.11.20 тихо ()   20000 м    ясно 
+14.6 -2.3 31 +15  1019.3  -0.6  759  291           
12 30.11.20 240 (ЮЗ) 20000 м    3/0 верхняя 
[Ci fib]
+15.7 +3 42 +17  1017.9  -1.3  758  288           
15 30.11.20 020 (С) 10 км    3/0 верхняя 
[Ci fib]
+10.7 +3.9 63 +12  1017.8  -0.3  758  293    +17.3       
18 30.11.20 020 (С) 10 км    ясно 
+9.2 -2.3 44 +9  1017.3  -0.5  757  295           
21 30.11.20 050 (СВ) 10 км    ясно 
+6.1 -1.2 59 +5  1016.8  -0.6  757  298           
00 01.12.20 050 (СВ) 10 км    ясно 
+4 -0.9 70 +3  1016.9  0.1  757  301           
03 01.12.20 050 (СВ) 10 км    ясно 
+3.1 -0.9 75 +2  1017.3  0.3  757  302  +3         
06 01.12.20 040 (СВ) 20000 м    3/3 1000 м 
[Sc]
+6.6 +1.3 69 +6  1018  0.8  758  298           
09 01.12.20 150 (ЮВ) 20000 м    1/1 1000 м 
[Sc]
+14.6 +6.2 57 +15  1017.8  758  289           
12 01.12.20 140 (ЮВ) 20000 м    4/3 1000 м верхняя 
[Cu Sc|Ci]
+14.2 +7.5 64 +14  1017.3  -0.5  757  289           
15 01.12.20 090 (В) 10 км    8/4 1000 м верхняя 
[Cu Sc|Ci]
+12.3 +7.8 74 +14  1018.3  758  291    +14.8       
18 01.12.20 тихо ()   1000 м    4/0 верхняя 
[Sc|Ci fib]
+8.4 +4.7 77 +8  1019.2  0.8  759  296           
21 01.12.20 030 (СВ) 10 км    10/6 1000 м верхняя 
[Sc|Ci sp]
+7.1 +3.3 77 +7  1020.1  0.8  759  298           
00 02.12.20 050 (СВ) 10 км    8/0 средняя 
[Ac cast]
+6.4 +2 73 +6  1020.7  0.6  760  299           
03 02.12.20 050 (СВ) 10 км    10/0 средняя 
[Ac und]
+6.8 +2 71 +7  1021.1  0.4  760  299  +6         
06 02.12.20 040 (СВ) 20000 м    10/5 1000 м средняя 
[Sc|Ac As]
+7.6 +2 68 +9  1022.2  1.1  761  298           
09 02.12.20 040 (СВ) 20000 м  {ливн. осадки}  10/8 1000 м кучево-дожд., средняя 
[Cb cap|Ac As]
+9.8 +3.9 67 +10  1022.2  0.1  761  295           
12 02.12.20 тихо ()   20000 м  {ливн. осадки}  10/6 1000 м средняя, верхняя 
[Cu Sc|Ac trans|Ci sp]
+13.6 +6.4 62 +14  1021.7  -0.4  761  291           
15 02.12.20 050 (СВ) 10 км    10/6 1000 м средняя, верхняя 
[Cu Sc|Ac trans|Ci sp]
+10.7 +5.3 69 +12  1022.2  0.4  761  294    +13.7  0.0     
18 02.12.20 тихо ()   10 км    10/8 1000 м кучево-дожд., средняя, верхняя 
[Cb cap|Ac trans|Ci sp]
+10 +3.9 66 +10  1023  0.8  762  295           
21 02.12.20 тихо ()   10 км    10/5 1000 м кучево-дожд., средняя 
[Cb cap|Ac As]
+9.9 +3.3 63 +10  1023.2  0.2  762  296           
00 03.12.20 040 (СВ) 10 км    10/5 1000 м средняя 
[Cu Sc|Ac trans]
+9.2 +3 65 +10  1023.5  0.2  762  297           
03 03.12.20 050 (СВ) 10 км  в посл. час ливневой дождь  10/8 1000 м кучево-дожд., средняя 
[Cb cap|Ac trans]
+8.8 +2.6 65 +9  1023.8  0.3  762  297  +8.8    0.0     
06 03.12.20 050 (СВ) 20000 м  {ливн. осадки}  8/4 1000 м средняя 
[Cu Sc|Ac trans]
+9.4 +3.7 68 +9  1024.3  0.5  763  296  +8.4         
Время (UTC), дата Ветер
(°,м/с) 
Видим.   Явления Облачность Т
(°С)
Тd
(°С)
f(%) Тe
(°С)
Pmin
(гПа)
dP
(гПа)
Po
(мм)
O2
(г/м3)
Тmin Tmax R s Состояние
почвы

Для получения пояснительной информации подведите курсор к названию столбца.

ПОГОДА Туапсе - архив

Всё, что Вы хотите узнать о погоде Туапсе - удобно и подробно!

Выберите нужную дату (начиная с 1 января 2019* года) и нажмите кнопку "Найти".
Будут отображены архивные сводки погоды по пункту Туапсе, начиная с указанной даты.


Отображать данные в формате CSV (для использования в таблицах Excel)


Внимание! Наш архив погоды предназначен исключительно для личного некоммерческого использования в познавательных целях. Если Вам необходимы официальные справки о состоянии погоды (для производственных, юридических, коммерческих и т.п. целей), обращайтесь в органы Росгидромета.

*Примечание: данная дата относится к архиву по метеостанциям СССР (Россия, СНГ, Балтия).
Архив по метеостанциям Зарубежной Европы и Азии (кроме Китая) хранится 10 дней, по другим регионам земного шара (Китай, Африка, Америка, Австралия, Океания) - 1 день.

Туапсе - район местоположения метеостанции


Название, широта, долгота, высота метеостанции:
Туапсе 44.1°ш. 39.1°д. 61 м над ур. моря [Российская Федерация]

Дополнительная информация

В oтличие oт бoльшинства пoгoдных сайтoв мы публикуем пoдрoбную метеoинфoрмацию в детальнoм прoфессиoнальнoм фoрмате.

Характеристики температуры и влажнoсти вoздуха измеряются на высoте 2 м в тени вдали oт зданий и деревьев.
Скoрoсть ветра измеряется на высoте 10 м (на урoвне рoста челoвека скoрoсть ветра ниже в 1.5-2 раза). Если метеoстанция нахoдится в гoрoде или в лесу, тo скoрoсть ветра занижена на 2-4 м/с пo сравнению с oткрытым местoм. Скoрoсть ветра над акватoриями крупных рек и oзёр, а также на вершинах хoлмoв на 2-5 м/с выше, чем в oбычных услoвиях.
Атмoсфернoе давление в разных тoчках местнoсти мoжет значительнo oтличаться oт давления на метеoстанции, в зависимoсти oт услoвий рельефа (при пoдъёме на 10 м давление пoнижается примернo на 1 мм рт.ст.).